Regional Weather Roundup
Issued by NWS

Home | Current Version | Previous Version | Text Only | Print | Product List | Glossary Off
Versions: 1 2 3 4 5 6 7 8 9 10 11 12 13 14 15 16 17 18 19 20 21 22 23 24 25 26 27 28 29 30 31 32 33 34 35 36 37 38 39 40 41 42 43 44 45 46 47 48 49 50

000
ASUS43 KLMK 231302
RWRKY
KENTUCKY REGIONAL WEATHER ROUNDUP
NATIONAL WEATHER SERVICE LOUISVILLE KY
800 AM EST MON JAN 23 2017

NOTE "FAIR" INDICATES FEW OR NO CLOUDS BELOW 12,000 FEET
WITH NO SIGNIFICANT WEATHER AND/OR OBSTRUCTIONS TO VISIBILITY.

KYZ001>023-026-027-061>063-070>075-231400-
WESTERN AND SOUTH CENTRAL KENTUCKY

CITY           SKY/WX    TMP DP  RH WIND       PRES   REMARKS
PADUCAH        CLEAR     41  34  76 NW13      29.67R
HENDERSON      CLOUDY    43  36  75 NW16G23   29.64R
OWENSBORO      CLOUDY    44  41  89 NW18      29.62R
HOPKINSVILLE   CLOUDY    44  41  89 NW15G21   29.60R
BOWLING GREEN  CLOUDY    49  44  83 NW18G30   29.51R
GLASGOW        NOT AVBL
$$

KYZ024-025-028>034-038-045-046-053-231400-
NORTH CENTRAL KENTUCKY

CITY           SKY/WX    TMP DP  RH WIND       PRES   REMARKS
LOUISVILLE/SDF CLOUDY    53  46  77 N22G29    29.49R
LOUISVILLE/LOU CLOUDY    53  47  79 N14G25    29.49R
FORT KNOX      CLOUDY    51  47  85 NW16G25   29.48R
$$

KYZ035>037-039>044-047>052-055>060-089>105-231400-
NORTHEAST KENTUCKY

CITY           SKY/WX    TMP DP  RH WIND       PRES   REMARKS
LEXINGTON      RAIN      51  48  89 N17G26    29.41R
COVINGTON      LGT RAIN  46  45  96 N15       29.48R FOG
FRANKFORT      LGT RAIN  51  46  83 N12       29.43R
$$

KYZ054-064>069-076>088-106>120-231400-
SOUTHEAST KENTUCKY

CITY           SKY/WX    TMP DP  RH WIND       PRES   REMARKS
JACKSON        LGT RAIN  51  49  92 NE7       29.32R
LONDON         LGT RAIN  52  49  89 N10       29.32R
SOMERSET       LGT RAIN  50  50 100 N12G20    29.37R
MIDDLESBORO    RAIN      52  51  97 N6        29.29R
MONTICELLO     RAIN      52  50  93 N16G31    29.39R FOG
$$




USA.gov is the U.S. government's official web portal to all federal, state and local government web resources and services.